Overview Statistics Trail Chart Weather Telemetry Raw packets
 

This is the latest recevied weather packets stored in our database for station/object W6MAF. If no packets are shown the sender has not sent any weather packets the latest 10 day(s).

<< 75 76 77 78 79 80 81 >>
Time Temp. Humidity Pressure Rain* Wind** Luminosity Snow
1788124174 30° C 6% - 0 mm 9.39 m/s, 187° - -
1788123873 30° C 6% - 0 mm 7.6 m/s, 219° - -
1788123575 29.44° C 7% - 0 mm 8.94 m/s, 181° - -
1788123277 30° C 7% - 0 mm 8.05 m/s, 170° - -
1788122979 30° C 7% - 0 mm 8.94 m/s, 174° - -
1788122682 30° C 6% - 0 mm 9.83 m/s, 184° - -
1788122384 30° C 7% - 0 mm 7.15 m/s, 167° - -
1788122083 30° C 7% - 0 mm 5.36 m/s, 188° - -
1788121785 30° C 6% - 0 mm 9.39 m/s, 187° - -
1788121488 30° C 6% - 0 mm 8.05 m/s, 190° - -
1788121190 30.56° C 6% - 0 mm 8.05 m/s, 179° - -
1788120892 30.56° C 5% - 0 mm 6.71 m/s, 207° - -
1788120294 30° C 6% - 0 mm 8.94 m/s, 193° - -
1788119996 30° C 6% - 0 mm 8.05 m/s, 190° - -
1788119698 30.56° C 6% - 0 mm 7.6 m/s, 208° - -
1788119400 30.56° C 6% - 0 mm 5.81 m/s, 207° - -
1788119103 30.56° C 6% - 0 mm 6.26 m/s, 191° - -
1788118805 30.56° C 6% - 0 mm 5.81 m/s, 194° - -
1788118519 31.11° C 6% - 0 mm 4.02 m/s, 201° - -
1788118206 31.11° C 6% - 0 mm 5.81 m/s, 219° - -
1788117611 31.11° C 6% - 0 mm 5.36 m/s, 195° - -
1788117369 31.11° C 6% - 0 mm 4.47 m/s, 215° - -
1788117313 31.11° C 6% - 0 mm 4.47 m/s, 215° - -
1788117015 31.11° C 6% - 0 mm 3.13 m/s, 245° - -
1788116716 31.11° C 6% - 0 mm 5.81 m/s, 203° - -

* Rain latest hour (hover to see other rain measurements)
** Current wind speed in m/s (hover to see current wind gust speed)